Waarnemingen

Advertentie
Mijn weer
Santander, Spanje (8023): temperatuur & dauwpunt: 10.12.2017 00:00:00 - 16.12.2017 00:00:00 (CET)Santander, Spanje (8023): windsnelheid & windstoten: 10.12.2017 00:00:00 - 16.12.2017 00:00:00 (CET)Santander, Spanje (8023): windrichting: 10.12.2017 00:00:00 - 16.12.2017 00:00:00 (CET)Santander, Spanje (8023): luchtdruk: 10.12.2017 00:00:00 - 16.12.2017 00:00:00 (CET)Santander, Spanje (8023): zicht: 10.12.2017 00:00:00 - 16.12.2017 00:00:00 (CET)Santander, Spanje (8023): neerslag: 10.12.2017 00:00:00 - 16.12.2017 00:00:00 (CET)
Datum & Tijd tt [°C] td [°C] ff [km/u] ff [kn] fx [km/u] fx [kn] dd ppp [hPa] vv [km] rr [mm]
16.12.2017 00:00:00 11,3 5,2 35 19 - - NNW 1017,4 7 0,0
15.12.2017 23:00:00 10,8 5,3 31 17 - - NW 1016,9 7 0,2
15.12.2017 22:00:00 9,8 6,1 28 15 - - WNW 1016,4 12 -
15.12.2017 21:00:00 10,9 5,6 34 18 - - NW 1015,9 7 1,0
15.12.2017 20:00:00 10,8 6,3 28 15 - - NW 1015,3 6 0,0
15.12.2017 19:00:00 9,6 7,4 41 22 - - NNW 1014,3 6 -
15.12.2017 18:00:00 10,3 7,4 34 18 - - W 1013,7 7 2,0
15.12.2017 17:00:00 10,2 6,0 35 19 - - WNW 1013,1 8 0,0
15.12.2017 16:00:00 10,3 7,4 31 17 - - W 1012,7 10 -
15.12.2017 15:00:00 10,0 7,6 37 20 - - W 1012,2 7 0,4
15.12.2017 14:00:00 9,7 6,8 41 22 - - WNW 1012,5 6 6,0
15.12.2017 13:00:00 11,1 7,2 39 21 - - W 1012,2 9 -
15.12.2017 12:00:00 - - - - - - - - - -
15.12.2017 11:00:00 8,6 7,2 22 12 - - WZW 1012,9 10 2,0
15.12.2017 10:00:00 8,1 6,7 28 15 - - WZW 1012,6 8 -
15.12.2017 09:00:00 7,7 6,6 22 12 - - WZW 1012,5 8 0,6
15.12.2017 08:00:00 7,6 6,5 28 15 - - WZW 1011,9 3,0 2,0
15.12.2017 07:00:00 8,5 7,4 29 16 - - W 1011,6 7 -
15.12.2017 06:00:00 8,7 7,5 29 16 - - W 1011,2 8 2,0
15.12.2017 05:00:00 8,7 7,9 39 21 96 52 NW 1011,8 2,5 4,0
15.12.2017 04:00:00 11,1 8,1 55 30 - - NW 1010,3 8 -
15.12.2017 03:00:00 12,6 7,1 44 24 - - W 1009,9 8 0,0
15.12.2017 02:00:00 12,3 7,2 46 25 - - WNW 1010,5 6 0,0
15.12.2017 01:00:00 12,5 6,1 41 22 - - W 1011,7 10 -
15.12.2017 00:00:00 13,1 6,4 41 22 - - W 1012,0 9 0,0
14.12.2017 23:00:00 13,2 8,1 41 22 - - WNW 1012,1 6 0,0
14.12.2017 22:00:00 13,1 8,6 42 23 - - WNW 1012,2 10 -
14.12.2017 21:00:00 13,4 8,5 42 23 - - W 1012,1 6 0,0
14.12.2017 20:00:00 13,3 8,4 44 24 - - WNW 1011,9 6 0,0
14.12.2017 19:00:00 13,2 10,0 42 23 - - WNW 1012,1 10 -
14.12.2017 18:00:00 13,0 10,4 34 18 - - WNW 1012,6 - 0,0
14.12.2017 17:00:00 13,2 10,6 35 19 - - WNW 1013,1 6 0,0
14.12.2017 16:00:00 13,1 10,5 37 20 - - WNW 1013,5 10 -
14.12.2017 15:00:00 13,2 11,3 21 11 - - W 1014,2 2,6 0,0
14.12.2017 14:00:00 13,3 11,2 22 12 - - W 1015,1 6 0,0
14.12.2017 13:00:00 13,2 11,3 21 11 - - W 1015,9 10 -
14.12.2017 12:00:00 13,1 11,3 22 12 - - W 1016,7 11 0,0
14.12.2017 11:00:00 12,2 10,9 18 10 - - WZW 1016,9 20 0,0
14.12.2017 10:00:00 11,7 10,6 13 7 - - ZW 1017,3 20 -
14.12.2017 09:00:00 11,4 10,6 18 10 - - WZW 1017,7 13 0,6
14.12.2017 08:00:00 11,8 11,0 24 13 - - WZW 1017,4 - 2,0
14.12.2017 07:00:00 11,8 10,9 31 17 - - W 1017,8 7 -
14.12.2017 06:00:00 11,6 10,7 35 19 - - WNW 1017,8 3,2 3,0
14.12.2017 05:00:00 12,3 11,2 26 14 - - WNW 1018,2 4,9 2,0
14.12.2017 04:00:00 12,7 11,8 18 10 - - W 1018,6 8 -
14.12.2017 03:00:00 12,7 12,1 22 12 - - W 1018,8 - 2,0
14.12.2017 02:00:00 12,5 11,9 26 14 - - W 1018,6 2,6 0,2
14.12.2017 01:00:00 12,6 12,0 29 16 - - WNW 1018,9 10 -
14.12.2017 00:00:00 13,0 12,4 29 16 - - W 1018,7 1,7 0,4
13.12.2017 23:00:00 12,9 12,1 34 18 - - WNW 1018,7 - 0,6
13.12.2017 22:00:00 13,3 12,2 22 12 - - WNW 1018,8 12 -
13.12.2017 21:00:00 14,5 12,0 39 21 - - WNW 1017,9 8 0,0
13.12.2017 20:00:00 13,4 9,1 18 10 - - ZW 1017,7 19 0,2
13.12.2017 19:00:00 13,2 8,7 22 12 - - ZZW 1017,0 12 -
13.12.2017 18:00:00 14,1 10,3 18 10 - - WZW 1017,3 10 0,2
13.12.2017 17:00:00 14,6 6,7 21 11 - - ZW 1017,1 15 0,0
13.12.2017 16:00:00 14,6 4,0 26 14 - - ZZW 1016,1 20 -
13.12.2017 15:00:00 14,6 4,3 18 10 - - ZZW 1017,0 19 0,0
13.12.2017 14:00:00 14,8 4,8 18 10 - - ZZW 1017,4 20 0,0
13.12.2017 13:00:00 14,6 5,4 11 6 - - ZW 1018,4 20 -
13.12.2017 12:00:00 13,5 4,6 22 12 - - ZZW 1019,4 19 0,0
13.12.2017 11:00:00 11,8 4,7 22 12 - - ZZW 1020,1 19 0,0
13.12.2017 10:00:00 10,8 4,3 24 13 - - ZZW 1020,3 20 -
13.12.2017 09:00:00 10,6 4,1 26 14 - - ZZW 1020,0 19 0,0
13.12.2017 08:00:00 10,7 3,9 22 12 - - ZZW 1020,3 19 0,0
13.12.2017 07:00:00 10,4 4,3 21 11 - - ZZW 1019,9 19 -
13.12.2017 06:00:00 10,0 4,6 22 12 - - ZZW 1019,1 19 0,0
13.12.2017 05:00:00 10,1 4,0 22 12 - - ZZW 1019,5 19 0,0
13.12.2017 04:00:00 10,5 1,6 16 9 - - ZW 1020,1 20 -
13.12.2017 03:00:00 9,8 0,9 21 11 - - ZZW 1019,8 20 0,0
13.12.2017 02:00:00 8,7 1,8 18 10 - - ZZW 1020,5 20 0,0
13.12.2017 01:00:00 8,3 2,3 18 10 - - Z 1020,8 20 -
13.12.2017 00:00:00 8,8 2,1 18 10 - - ZZW 1021,6 20 0,0
12.12.2017 23:00:00 8,6 2,6 18 10 - - ZZW 1021,3 20 0,0
12.12.2017 22:00:00 8,6 3,0 18 10 - - ZZW 1021,0 20 -
12.12.2017 21:00:00 8,7 4,1 16 9 - - ZZW 1020,9 16 0,0
12.12.2017 20:00:00 9,3 4,9 15 8 - - ZZW 1020,1 15 0,0
12.12.2017 19:00:00 10,2 5,4 11 6 - - WZW 1020,4 18 -
12.12.2017 18:00:00 10,4 5,8 18 10 - - W 1019,9 14 0,0
12.12.2017 17:00:00 9,0 6,4 11 6 - - Z 1019,5 20 0,0
12.12.2017 16:00:00 8,9 7,2 9 5 - - Z 1018,8 20 -
12.12.2017 15:00:00 8,2 6,7 8 4 - - Z 1018,4 16 2,0
12.12.2017 14:00:00 7,2 6,0 11 6 - - Z 1018,9 2,5 4,0
12.12.2017 13:00:00 7,0 5,6 13 7 - - ZZW 1018,6 4,0 -
12.12.2017 12:00:00 6,4 5,2 18 10 - - ZZW 1017,8 16 2,0
12.12.2017 11:00:00 6,2 5,0 15 8 - - ZZO 1017,8 2,8 4,0
12.12.2017 10:00:00 5,8 4,4 16 9 - - Z 1016,6 4,0 -
12.12.2017 09:00:00 6,1 3,9 8 4 - - ZO 1015,9 4,7 3,0
12.12.2017 08:00:00 5,9 3,6 13 7 - - ZW 1015,0 14 1,0
12.12.2017 07:00:00 5,5 3,5 16 9 - - ZZW 1014,2 9 -
12.12.2017 06:00:00 5,7 3,4 15 8 - - Z 1013,3 2,7 12,0
12.12.2017 05:00:00 7,2 2,9 16 9 - - WZW 1011,8 7 0,0
12.12.2017 04:00:00 8,2 3,0 13 7 - - ZW 1011,1 16 -
12.12.2017 03:00:00 10,8 2,6 24 13 - - NNW 1009,7 6 0,0
12.12.2017 02:00:00 10,7 2,3 34 18 - - NNW 1008,9 6 0,0
12.12.2017 01:00:00 10,5 1,0 41 22 - - NNW 1008,3 15 -
12.12.2017 00:00:00 10,4 5,6 41 22 80 43 NNW 1007,6 7 0,6
11.12.2017 23:00:00 8,4 4,6 48 26 80 43 NNW 1006,7 4,5 1,0
11.12.2017 22:00:00 10,1 3,6 41 22 - - NW 1004,9 10 -
11.12.2017 21:00:00 9,4 1,5 46 25 85 46 NNW 1003,6 7 0,0
11.12.2017 20:00:00 9,8 4,4 37 20 - - NW 1001,8 6 0,0
11.12.2017 19:00:00 9,4 4,8 46 25 - - NW 1000,2 8 -
11.12.2017 18:00:00 7,6 5,6 21 11 - - W 998,9 6 0,2
11.12.2017 17:00:00 7,7 5,3 42 23 80 43 W 997,1 6 1,0
11.12.2017 16:00:00 6,3 4,9 39 21 - - W 995,5 10 -
11.12.2017 15:00:00 7,7 6,0 41 22 - - W 994,3 11 2,0
11.12.2017 14:00:00 8,2 5,7 46 25 78 42 W 993,5 3,5 0,8
11.12.2017 13:00:00 9,0 5,7 44 24 - - W 992,7 8 -
11.12.2017 12:00:00 8,7 5,3 37 20 - - W 992,0 4,9 1,0
11.12.2017 11:00:00 10,5 5,5 41 22 78 42 W 990,6 13 0,0
11.12.2017 10:00:00 10,3 5,1 44 24 - - WNW 989,7 12 -
11.12.2017 09:00:00 8,9 4,7 34 18 - - W 988,6 15 0,0
11.12.2017 08:00:00 8,9 5,1 39 21 - - W 988,0 13 0,0
11.12.2017 07:00:00 9,1 4,3 28 15 - - WZW 987,5 20 -
11.12.2017 06:00:00 9,4 5,2 31 17 - - W 986,4 13 0,0
11.12.2017 05:00:00 9,9 5,7 18 10 - - WZW 986,4 19 0,0
11.12.2017 04:00:00 10,3 6,6 50 27 - - W 984,4 8 -
11.12.2017 03:00:00 11,1 6,8 57 31 80 43 W 984,1 16 0,2
11.12.2017 02:00:00 11,0 8,6 39 21 - - W 982,9 13 3,0
11.12.2017 01:00:00 10,3 8,9 41 22 - - W 982,7 3,0 -
11.12.2017 00:00:00 11,2 8,9 57 31 98 53 W 983,1 2,2 3,0
10.12.2017 23:00:00 17,5 8,1 39 21 - - ZZW 978,5 20 0,0
10.12.2017 22:00:00 16,5 9,7 26 14 - - ZZW 981,0 20 -
10.12.2017 21:00:00 12,7 11,3 5 3 - - O 984,7 16 0,2
10.12.2017 20:00:00 12,0 11,1 24 13 - - OZO 987,7 7 1,0
10.12.2017 19:00:00 11,6 10,8 11 6 - - ZZO 991,9 8 -
10.12.2017 18:00:00 11,5 10,7 18 10 - - Z 994,3 6 3,0
10.12.2017 17:00:00 11,8 10,9 13 7 - - WZW 997,9 2,9 2,0
10.12.2017 16:00:00 12,0 10,9 26 14 - - W 998,4 3,0 -
10.12.2017 15:00:00 12,4 11,5 22 12 - - W 1000,3 2,9 6,0
10.12.2017 14:00:00 14,0 12,4 26 14 - - WNW 1002,2 3,1 2,0
10.12.2017 13:00:00 14,1 10,9 26 14 - - NNW 1002,8 9 -
10.12.2017 12:00:00 16,3 8,8 21 11 - - ZW 1003,0 17 0,0
10.12.2017 11:00:00 15,2 8,7 22 12 - - ZZW 1004,5 14 0,2
10.12.2017 10:00:00 15,4 8,4 26 14 - - ZZW 1005,3 14 -
10.12.2017 09:00:00 16,6 7,2 24 13 - - ZZW 1005,2 20 0,0
10.12.2017 08:00:00 16,6 7,2 24 13 - - ZZW 1006,0 20 0,0
10.12.2017 07:00:00 16,1 7,3 24 13 - - ZZW 1007,4 12 -
10.12.2017 06:00:00 15,2 7,7 22 12 - - ZZW 1008,4 20 0,0
10.12.2017 05:00:00 15,3 8,3 16 9 - - ZZW 1009,8 20 0,0
10.12.2017 04:00:00 15,5 8,2 11 6 - - ZW 1011,6 12 -
10.12.2017 03:00:00 15,9 9,1 16 9 - - WZW 1012,1 20 0,0
10.12.2017 02:00:00 15,9 9,8 21 11 - - WZW 1012,8 20 0,0
10.12.2017 01:00:00 15,3 10,7 21 11 - - WZW 1013,8 12 -
10.12.2017 00:00:00 15,4 11,0 26 14 - - W 1014,5 20 0,0

tt = temperatuur
td = dauwpunt
ff = windsnelheid
fx = windstoten
dd = windrichting
ppp = luchtdruk
vv = zicht
rr = neerslag

Weerstations in de omgeving